Madison, SD

6:32 PM CDT on September 27, 2016 (GMT -0500)
Madison Municipal

Weather History for KMDS - January, 2013

Change the Weather History Date:

Saturday, January 19, 2013

  Actual Average Record
Temperature  
Mean Temperature 20 °F -  
Max Temperature 37 °F 24 °F 44 °F (2014)
Min Temperature 1 °F 2 °F -18 °F (2011)
Degree Days  
Heating Degree Days 45    
Moisture  
Dew Point 22 °F    
Average Humidity 89    
Maximum Humidity 100    
Minimum Humidity 68    
Precipitation  
Precipitation 0.00 in - - ()
Sea Level Pressure  
Sea Level Pressure 29.98 in    
Wind  
Wind Speed 17 mph (NW)    
Max Wind Speed 40 mph    
Max Gust Speed 52 mph    
Visibility 10 miles    
Events Snow    
Averages and records for this station are not official NWS values.
T = Trace of Precipitation, MM = Missing Value Source: NWS Daily Summary

Daily Weather History Graph

Daily Weather History Graph

Search for Another Location

Airport or City:

Trip Planner

Search our weather history database for the weather conditions in past years. The results will help you decide how hot, cold, wet, or windy it might be!

Date:

Astronomy

Jan. 19, 2013 Rise Set
Actual Time 7:57 AM CST 5:21 PM CST
Civil Twilight 7:25 AM CST 5:53 PM CST
Nautical Twilight 6:50 AM CST 6:28 PM CST
Astronomical Twilight 6:15 AM CST 7:03 PM CST
Moon 11:50 AM CST (1/19) 1:29 AM CST (1/19)
Length of Visible Light 10h 27m
Length of Day
9h 24m
First Quarter, 57% of the Moon is Illuminated
Jan 19
First Quarter
Jan 26
Full
Feb 3
Last Quarter
Feb 10
New
Feb 17
First Quarter

Hourly Weather History & Observations

Time (CST) Temp. Windchill Dew Point Humidity Pressure Visibility Wind Dir Wind Speed Gust Speed Precip Events Conditions
12:00 AM 35.6 °F 28.6 °F 32.0 °F 87% 29.76 in 10.0 mi WSW 9.2 mph - N/A   Mostly Cloudy
12:20 AM 35.6 °F 28.0 °F 33.8 °F 93% 29.75 in 10.0 mi WSW 10.4 mph - N/A   Mostly Cloudy
12:40 AM 35.6 °F 27.5 °F 32.0 °F 87% 29.75 in 10.0 mi WSW 11.5 mph - N/A   Overcast
1:00 AM 35.6 °F 27.1 °F 32.0 °F 87% 29.75 in 10.0 mi WSW 12.7 mph - N/A   Mostly Cloudy
1:20 AM 35.6 °F 27.5 °F 32.0 °F 87% 29.75 in 10.0 mi WSW 11.5 mph - N/A   Scattered Clouds
1:40 AM 35.6 °F 28.0 °F 32.0 °F 87% 29.75 in 10.0 mi West 10.4 mph - N/A   Clear
2:00 AM 35.6 °F 27.5 °F 32.0 °F 87% 29.75 in 10.0 mi West 11.5 mph - N/A   Clear
2:20 AM 35.6 °F 28.6 °F 32.0 °F 87% 29.75 in 10.0 mi West 9.2 mph - N/A   Clear
2:40 AM 35.6 °F 28.0 °F 32.0 °F 87% 29.76 in 10.0 mi West 10.4 mph - N/A   Clear
3:00 AM 33.8 °F 25.8 °F 32.0 °F 93% 29.76 in 10.0 mi West 10.4 mph - N/A   Clear
3:20 AM 35.6 °F 27.1 °F 32.0 °F 87% 29.75 in 10.0 mi West 12.7 mph 18.4 mph N/A   Clear
3:40 AM 35.6 °F 27.1 °F 32.0 °F 87% 29.75 in 10.0 mi WNW 12.7 mph - N/A   Clear
4:00 AM 35.6 °F 26.6 °F 32.0 °F 87% 29.75 in 10.0 mi West 13.8 mph 19.6 mph N/A   Clear
4:20 AM 33.8 °F 24.3 °F 32.0 °F 93% 29.75 in 10.0 mi WNW 13.8 mph - N/A   Clear
4:40 AM 33.8 °F 24.8 °F 32.0 °F 93% 29.75 in 10.0 mi WNW 12.7 mph - N/A   Clear
5:00 AM 33.8 °F 24.3 °F 32.0 °F 93% 29.76 in 10.0 mi WNW 13.8 mph 17.3 mph N/A   Clear
5:20 AM 33.8 °F 25.8 °F 32.0 °F 93% 29.76 in 10.0 mi WNW 10.4 mph - N/A   Clear
5:40 AM 32.0 °F 24.2 °F 32.0 °F 100% 29.77 in 10.0 mi WNW 9.2 mph - N/A   Clear
6:00 AM 32.0 °F 23.0 °F 32.0 °F 100% 29.78 in 10.0 mi WNW 11.5 mph - N/A   Clear
6:20 AM 32.0 °F 21.6 °F 32.0 °F 100% 29.79 in 10.0 mi WNW 15.0 mph - N/A   Partly Cloudy
6:40 AM 32.0 °F 22.1 °F 32.0 °F 100% 29.79 in 10.0 mi WNW 13.8 mph - N/A   Mostly Cloudy
7:00 AM 32.0 °F 20.5 °F 32.0 °F 100% 29.80 in 10.0 mi NW 18.4 mph - N/A   Mostly Cloudy
7:20 AM 32.0 °F 19.8 °F 32.0 °F 100% 29.81 in 10.0 mi NW 20.7 mph 25.3 mph N/A   Partly Cloudy
7:40 AM 32.0 °F 20.1 °F 32.0 °F 100% 29.82 in 10.0 mi NW 19.6 mph 24.2 mph N/A   Clear
8:00 AM 32.0 °F 20.8 °F 32.0 °F 100% 29.83 in 10.0 mi WNW 17.3 mph - N/A   Clear
8:20 AM 32.0 °F 21.6 °F 32.0 °F 100% 29.84 in 10.0 mi WNW 15.0 mph - N/A   Clear
8:40 AM 32.0 °F 20.5 °F 32.0 °F 100% 29.85 in 10.0 mi NW 18.4 mph 23.0 mph N/A   Clear
9:00 AM 33.8 °F 22.8 °F 33.8 °F 100% 29.87 in 10.0 mi NW 18.4 mph 24.2 mph N/A   Clear
9:20 AM 33.8 °F 23.2 °F 33.8 °F 100% 29.88 in 10.0 mi NW 17.3 mph 24.2 mph N/A   Partly Cloudy
9:40 AM 33.8 °F 23.2 °F 33.8 °F 100% 29.90 in 10.0 mi NW 17.3 mph 23.0 mph N/A   Partly Cloudy
10:00 AM 35.6 °F 26.2 °F 35.6 °F 100% 29.91 in 10.0 mi NW 15.0 mph - N/A   Partly Cloudy
10:20 AM 35.6 °F 26.2 °F 35.6 °F 100% 29.92 in 10.0 mi WNW 15.0 mph - N/A   Clear
10:40 AM 35.6 °F 25.9 °F 35.6 °F 100% 29.92 in 10.0 mi WNW 16.1 mph 21.9 mph N/A   Clear
11:20 AM 35.6 °F 24.8 °F 35.6 °F 100% 29.94 in 10.0 mi WNW 19.6 mph 25.3 mph N/A   Clear
11:40 AM 37.4 °F 27.2 °F 37.4 °F 100% 29.93 in 10.0 mi WNW 19.6 mph 27.6 mph N/A   Clear
12:00 PM 37.4 °F 26.1 °F 37.4 °F 100% 29.93 in 10.0 mi NW 24.2 mph 28.8 mph N/A   Scattered Clouds
12:20 PM 37.4 °F 25.2 °F 37.4 °F 100% 29.94 in 10.0 mi NW 28.8 mph 35.7 mph N/A   Mostly Cloudy
12:40 PM 35.6 °F 24.0 °F 35.6 °F 100% 29.95 in 10.0 mi NW 23.0 mph 34.5 mph N/A   Mostly Cloudy
1:00 PM 35.6 °F 23.4 °F 35.6 °F 100% 29.96 in 10.0 mi NW 25.3 mph 33.4 mph N/A   Mostly Cloudy
1:40 PM 35.6 °F 23.7 °F 35.6 °F 100% 29.97 in 10.0 mi NW 24.2 mph 36.8 mph N/A   Mostly Cloudy
2:00 PM 33.8 °F 19.6 °F 32.0 °F 93% 29.98 in 10.0 mi NW 32.2 mph 43.7 mph N/A   Mostly Cloudy
2:20 PM 32.0 °F 17.2 °F 30.2 °F 93% 30.00 in 10.0 mi NNW 32.2 mph 39.1 mph N/A   Overcast
2:40 PM 28.4 °F 13.5 °F 26.6 °F 93% 30.02 in 10.0 mi NNW 26.5 mph 41.4 mph N/A   Overcast
3:00 PM 28.4 °F 11.2 °F 21.2 °F 74% 30.04 in 10.0 mi NW 38.0 mph 47.2 mph N/A   Mostly Cloudy
3:20 PM 24.8 °F 7.1 °F 17.6 °F 74% 30.07 in 10.0 mi NW 33.4 mph 46.0 mph N/A   Clear
3:40 PM 23.0 °F 5.1 °F 17.6 °F 80% 30.08 in 10.0 mi NW 31.1 mph 47.2 mph N/A   Clear
4:00 PM 23.0 °F 3.2 °F 14.0 °F 68% 30.10 in 10.0 mi NW 40.3 mph 51.8 mph N/A   Clear
4:20 PM 19.4 °F -1.3 °F 14.0 °F 80% 30.12 in 10.0 mi NNW 38.0 mph 43.7 mph N/A   Clear
4:40 PM 15.8 °F -4.4 °F 10.4 °F 79% 30.16 in 10.0 mi NW 29.9 mph 50.6 mph N/A   Partly Cloudy
5:00 PM 15.8 °F -6.3 °F 8.6 °F 73% 30.17 in 10.0 mi NNW 38.0 mph 44.9 mph N/A   Clear
5:20 PM 14.0 °F -7.7 °F 8.6 °F 79% 30.18 in 10.0 mi NNW 33.4 mph 46.0 mph N/A   Partly Cloudy
5:40 PM 14.0 °F -6.5 °F 8.6 °F 79% 30.20 in 10.0 mi NNW 28.8 mph 40.3 mph N/A   Mostly Cloudy
6:00 PM 12.2 °F -9.3 °F 8.6 °F 85% 30.21 in 10.0 mi NNW 29.9 mph 42.6 mph N/A Snow Light Snow
6:20 PM 10.4 °F -11.4 °F 6.8 °F 85% 30.23 in 10.0 mi NNW 28.8 mph 36.8 mph N/A   Mostly Cloudy
6:40 PM 10.4 °F -10.7 °F 5.0 °F 79% 30.24 in 10.0 mi NNW 26.5 mph 35.7 mph N/A   Partly Cloudy
7:00 PM 8.6 °F -13.1 °F 5.0 °F 85% 30.24 in 10.0 mi NNW 26.5 mph 34.5 mph N/A   Scattered Clouds
7:20 PM 8.6 °F -11.9 °F 5.0 °F 85% 30.26 in 10.0 mi NNW 23.0 mph 31.1 mph N/A   Mostly Cloudy
7:40 PM 8.6 °F -12.7 °F 1.4 °F 73% 30.26 in 10.0 mi NNW 25.3 mph 35.7 mph N/A   Partly Cloudy
8:00 PM 6.8 °F -15.9 °F 1.4 °F 79% 30.27 in 10.0 mi NNW 27.6 mph 33.4 mph N/A   Clear
8:20 PM 6.8 °F -13.8 °F 1.4 °F 79% 30.28 in 10.0 mi NNW 21.9 mph 28.8 mph N/A   Clear
8:40 PM 6.8 °F -13.8 °F -0.4 °F 72% 30.27 in 10.0 mi NNW 21.9 mph 32.2 mph N/A   Clear
9:00 PM 5.0 °F -16.2 °F -0.4 °F 78% 30.28 in 10.0 mi NNW 21.9 mph 29.9 mph N/A   Clear
9:20 PM 5.0 °F -16.2 °F -0.4 °F 78% 30.27 in 10.0 mi NNW 21.9 mph 27.6 mph N/A   Clear
9:40 PM 5.0 °F -13.6 °F -0.4 °F 78% 30.29 in 10.0 mi NNW 16.1 mph 24.2 mph N/A   Clear
10:00 PM 5.0 °F -15.2 °F -0.4 °F 78% 30.28 in 10.0 mi NNW 19.6 mph - N/A   Clear
10:20 PM 3.2 °F -17.1 °F -0.4 °F 85% 30.27 in 10.0 mi NNW 18.4 mph - N/A   Clear
10:40 PM 3.2 °F -17.6 °F -0.4 °F 85% 30.29 in 10.0 mi NNW 19.6 mph 25.3 mph N/A   Clear
11:00 PM 3.2 °F -14.6 °F -0.4 °F 85% 30.30 in 10.0 mi NNW 13.8 mph 19.6 mph N/A   Clear
11:20 PM 3.2 °F -15.3 °F -0.4 °F 85% 30.29 in 10.0 mi NNW 15.0 mph 19.6 mph N/A   Clear
11:40 PM 1.4 °F -16.9 °F -0.4 °F 92% 30.29 in 10.0 mi NNW 13.8 mph - N/A   Clear